K6OUA-11 Weather Reports


time (UTC)temp
C
wind
direction
speed
KPH
gust
KPH
rain 1hr
cm
rain 24hr
cm
rain mn
cm
humidity
%
barometer
mb
20260510053937 15 289 0.0 0.0 0.00 0.00 0.00 87
20260510053734 15 289 0.0 0.0 0.00 0.00 0.00 87
20260510053331 15 289 0.0 0.0 0.00 0.00 0.00 86
20260510053128 15 289 0.0 0.0 0.00 0.00 0.00 86
20260510052926 15 289 0.0 0.0 0.00 0.00 0.00 86
20260510052725 15 289 0.0 0.0 0.00 0.00 0.00 86
20260510052523 15 289 0.0 0.0 0.00 0.00 0.00 86
20260510052321 15 289 0.0 0.0 0.00 0.00 0.00 86
20260510052119 15 289 0.0 0.0 0.00 0.00 0.00 86
20260510051917 15 289 0.0 0.0 0.00 0.00 0.00 85
20260510051715 15 289 0.0 0.0 0.00 0.00 0.00 85
20260510051513 15 289 0.0 0.0 0.00 0.00 0.00 85
20260510051311 15 289 0.0 0.0 0.00 0.00 0.00 85
20260510051108 15 289 0.0 0.0 0.00 0.00 0.00 85
20260510050504 15 289 0.0 0.0 0.00 0.00 0.00 84
20260510050302 15 289 0.0 0.0 0.00 0.00 0.00 84
20260510050100 15 289 0.0 0.0 0.00 0.00 0.00 84
20260510045858 15 289 0.0 0.0 0.00 0.00 0.00 84
20260510045656 15 289 0.0 0.0 0.00 0.00 0.00 83
20260510045252 15 289 0.0 0.0 0.00 0.00 0.00 83
20260510045050 15 289 0.0 0.0 0.00 0.00 0.00 83
20260510044849 15 289 0.0 0.0 0.00 0.00 0.00 83
20260510044647 15 289 0.0 0.0 0.00 0.00 0.00 83
20260510044445 15 289 0.0 0.0 0.00 0.00 0.00 83
20260510044243 16 289 0.0 0.0 0.00 0.00 0.00 83
20260510043839 16 289 0.0 0.0 0.00 0.00 0.00 83
20260510043637 16 289 0.0 0.0 0.00 0.00 0.00 83
20260510043233 16 289 0.0 0.0 0.00 0.00 0.00 83
20260510043030 16 289 0.0 0.0 0.00 0.00 0.00 83
20260510042830 16 289 0.0 0.0 0.00 0.00 0.00 83
20260510042426 16 289 0.0 0.0 0.00 0.00 0.00 83
20260510042224 16 289 0.0 0.0 0.00 0.00 0.00 83
20260510042022 16 289 0.0 0.0 0.00 0.00 0.00 83
20260510041618 16 289 0.0 0.0 0.00 0.00 0.00 83
20260510041416 16 289 0.0 0.0 0.00 0.00 0.00 83
20260510041214 16 289 0.0 0.0 0.00 0.00 0.00 83
20260510041012 16 289 0.0 0.0 0.00 0.00 0.00 83
20260510040810 16 289 0.0 3.2 0.00 0.00 0.00 83
20260510040642 16 289 0.0 3.2 0.00 0.00 0.00 83
20260510040607 16 289 0.0 3.2 0.00 0.00 0.00 83
20260510040406 16 289 0.0 3.2 0.00 0.00 0.00 83
20260510040205 16 289 0.0 3.2 0.00 0.00 0.00 83
20260510035559 16 271 0.0 3.2 0.00 0.00 0.00 83
20260510035357 16 303 1.6 3.2 0.00 0.00 0.00 83
20260510035155 16 293 1.6 3.2 0.00 0.00 0.00 84
20260510034952 16 289 1.6 3.2 0.00 0.00 0.00 83
20260510034549 16 295 3.2 0.0 0.00 0.00 0.00 82
20260510034145 16 264 0.0 0.0 0.00 0.00 0.00 81
20260510033540 16 264 0.0 0.0 0.00 0.00 0.00 81
20260510033338 16 264 0.0 0.0 0.00 0.00 0.00 81
20260510033136 16 264 0.0 0.0 0.00 0.00 0.00 81
20260510032934 16 264 0.0 0.0 0.00 0.00 0.00 81
20260510032732 16 264 0.0 0.0 0.00 0.00 0.00 81
20260510032530 16 264 0.0 0.0 0.00 0.00 0.00 81
20260510032328 16 264 0.0 0.0 0.00 0.00 0.00 81
20260510032126 16 264 0.0 6.4 0.00 0.00 0.00 81
20260510031924 16 264 0.0 6.4 0.00 0.00 0.00 81
20260510031722 16 264 0.0 6.4 0.00 0.00 0.00 81
20260510031521 16 284 3.2 6.4 0.00 0.00 0.00 81
20260510031318 16 292 4.8 8.0 0.00 0.00 0.00 81
20260510031116 16 295 4.8 8.0 0.00 0.00 0.00 81
20260510030915 16 289 4.8 8.0 0.00 0.00 0.00 81
20260510030713 16 291 4.8 6.4 0.00 0.00 0.00 81
20260510030511 16 282 4.8 6.4 0.00 0.00 0.00 80
20260510030108 17 299 4.8 8.0 0.00 0.00 0.00 80
20260510025906 17 302 4.8 8.0 0.00 0.00 0.00 80
20260510025704 17 289 4.8 9.7 0.00 0.00 0.00 79
20260510025502 17 279 6.4 9.7 0.00 0.00 0.00 79
20260510025300 17 270 8.0 9.7 0.00 0.00 0.00 79
20260510025058 17 291 3.2 9.7 0.00 0.00 0.00 79
20260510024856 17 261 9.7 9.7 0.00 0.00 0.00 79
20260510024654 17 275 8.0 11.3 0.00 0.00 0.00 78
20260510024452 17 278 8.0 11.3 0.00 0.00 0.00 78
20260510024250 17 265 8.0 11.3 0.00 0.00 0.00 77
20260510024048 17 289 8.0 11.3 0.00 0.00 0.00 77
20260510023846 17 289 6.4 11.3 0.00 0.00 0.00 77
20260510023645 17 272 8.0 11.3 0.00 0.00 0.00 76
20260510023241 18 272 9.7 12.9 0.00 0.00 0.00 76
20260510023039 18 285 9.7 12.9 0.00 0.00 0.00 75
20260510022837 18 277 6.4 12.9 0.00 0.00 0.00 75
20260510022633 18 262 11.3 12.9 0.00 0.00 0.00 75
20260510022231 18 274 6.4 12.9 0.00 0.00 0.00 74
20260510022030 18 278 6.4 12.9 0.00 0.00 0.00 74
20260510021827 18 279 9.7 12.9 0.00 0.00 0.00 74
20260510021626 18 271 9.7 14.5 0.00 0.00 0.00 73
20260510021423 18 270 9.7 14.5 0.00 0.00 0.00 73
20260510021222 18 274 12.9 12.9 0.00 0.00 0.00 73
20260510021019 18 271 6.4 12.9 0.00 0.00 0.00 73
20260510020818 18 279 6.4 14.5 0.00 0.00 0.00 72
20260510020616 18 265 8.0 14.5 0.00 0.00 0.00 72
20260510020414 18 285 9.7 14.5 0.00 0.00 0.00 72
20260510020010 19 270 9.7 12.9 0.00 0.00 0.00 72
20260510015809 19 271 9.7 14.5 0.00 0.00 0.00 71
20260510015605 19 285 9.7 14.5 0.00 0.00 0.00 71
20260510015403 19 270 11.3 14.5 0.00 0.00 0.00 71
20260510015203 19 277 9.7 16.1 0.00 0.00 0.00 71
20260510014557 20 274 9.7 12.9 0.00 0.00 0.00 70
20260510013953 20 284 9.7 14.5 0.00 0.00 0.00 69
20260510013749 20 265 9.7 14.5 0.00 0.00 0.00 68
20260510013548 20 295 9.7 14.5 0.00 0.00 0.00 68
20260510013346 20 281 9.7 14.5 0.00 0.00 0.00 68
20260510012940 20 271 12.9 12.9 0.00 0.00 0.00 67
20260510012739 20 270 12.9 16.1 0.00 0.00 0.00 67
20260510012536 20 248 9.7 16.1 0.00 0.00 0.00 67
20260510012336 20 267 12.9 16.1 0.00 0.00 0.00 66
20260510012134 20 291 12.9 14.5 0.00 0.00 0.00 66
20260510011932 20 281 12.9 14.5 0.00 0.00 0.00 65
20260510011730 21 262 9.7 16.1 0.00 0.00 0.00 65
20260510011528 21 139 6.4 16.1 0.00 0.00 0.00 65
20260510011326 21 271 9.7 16.1 0.00 0.00 0.00 65
20260510010921 21 279 6.4 19.3 0.00 0.00 0.00 64
20260510010721 21 277 9.7 16.1 0.00 0.00 0.00 64
20260510010518 21 268 12.9 16.1 0.00 0.00 0.00 63
20260510010317 21 270 11.3 17.7 0.00 0.00 0.00 62
20260510010113 21 255 11.3 17.7 0.00 0.00 0.00 63
20260510005913 21 279 12.9 17.7 0.00 0.00 0.00 62
20260510005711 21 279 6.4 19.3 0.00 0.00 0.00 64
20260510005307 21 285 14.5 20.9 0.00 0.00 0.00 64
20260510005103 21 264 14.5 20.9 0.00 0.00 0.00 64
20260510004903 21 271 9.7 20.9 0.00 0.00 0.00 63
20260510004659 21 271 14.5 19.3 0.00 0.00 0.00 63
20260510004257 21 272 12.9 19.3 0.00 0.00 0.00 63
20260510004055 21 274 14.5 19.3 0.00 0.00 0.00 62
20260510003853 21 270 9.7 19.3 0.00 0.00 0.00 62
20260510003651 21 254 12.9 20.9 0.00 0.00 0.00 62
20260510003448 21 257 9.7 20.9 0.00 0.00 0.00 62
20260510003247 21 281 14.5 22.5 0.00 0.00 0.00 61
20260510003045 21 274 12.9 22.5 0.00 0.00 0.00 61
20260510002642 22 279 16.1 22.5 0.00 0.00 0.00 61
20260510002439 22 265 14.5 22.5 0.00 0.00 0.00 61
20260510002036 22 271 12.9 17.7 0.00 0.00 0.00 60
20260510001834 22 278 9.7 17.7 0.00 0.00 0.00 60
20260510001226 22 264 12.9 19.3 0.00 0.00 0.00 60
20260510001026 22 255 14.5 19.3 0.00 0.00 0.00 60
20260510000622 22 262 14.5 22.5 0.00 0.00 0.00 60
20260510000219 22 257 17.7 17.7 0.00 0.00 0.00 58
20260510000016 22 291 6.4 17.7 0.00 0.00 0.00 58
20260509235814 23 279 11.3 17.7 0.00 0.00 0.00 58
20260509235006 22 258 8.0 22.5 0.00 0.00 0.00 58
20260509234804 22 271 16.1 20.9 0.00 0.00 0.00 59
20260509234400 22 267 17.7 20.9 0.00 0.00 0.00 59
20260509234157 22 277 19.3 20.9 0.00 0.00 0.00 58
20260509233553 22 264 14.5 20.9 0.00 0.00 0.00 58
20260509233149 22 272 14.5 20.9 0.00 0.00 0.00 58
20260509232947 22 267 14.5 20.9 0.00 0.00 0.00 57
20260509232745 23 262 12.9 20.9 0.00 0.00 0.00 58
20260509232543 22 257 11.3 20.9 0.00 0.00 0.00 58
20260509232341 23 264 11.3 20.9 0.00 0.00 0.00 57
20260509232139 23 255 14.5 20.9 0.00 0.00 0.00 57
20260509231937 22 274 9.7 20.9 0.00 0.00 0.00 56
20260509231533 23 250 19.3 19.3 0.00 0.00 0.00 56
20260509231331 23 261 3.2 19.3 0.00 0.00 0.00 57
20260509231127 23 295 8.0 19.3 0.00 0.00 0.00 57
20260509230927 23 267 9.7 19.3 0.00 0.00 0.00 56
20260509230523 23 258 14.5 20.9 0.00 0.00 0.00 56
20260509230321 23 251 11.3 20.9 0.00 0.00 0.00 57
20260509230119 22 271 14.5 22.5 0.00 0.00 0.00 57
20260509225917 23 253 16.1 22.5 0.00 0.00 0.00 57
20260509225715 23 246 19.3 19.3 0.00 0.00 0.00 57
20260509225513 23 277 12.9 19.3 0.00 0.00 0.00 57
20260509225311 23 261 11.3 20.9 0.00 0.00 0.00 57
20260509224907 23 274 12.9 20.9 0.00 0.00 0.00 56
20260509224706 23 289 16.1 20.9 0.00 0.00 0.00 56
20260509224504 23 271 16.1 20.9 0.00 0.00 0.00 56
20260509224301 23 261 16.1 19.3 0.00 0.00 0.00 55
20260509223857 23 267 20.9 19.3 0.00 0.00 0.00 56
20260509223655 23 277 11.3 17.7 0.00 0.00 0.00 56
20260509223454 23 268 12.9 17.7 0.00 0.00 0.00 57
20260509223049 23 262 14.5 20.9 0.00 0.00 0.00 56
20260509222846 23 248 12.9 20.9 0.00 0.00 0.00 58
20260509222242 22 247 19.3 22.5 0.00 0.00 0.00 59
20260509222039 22 281 12.9 22.5 0.00 0.00 0.00 58
20260509221839 23 278 19.3 22.5 0.00 0.00 0.00 59
20260509221636 22 291 16.1 24.1 0.00 0.00 0.00 58
20260509221438 23 270 12.9 24.1 0.00 0.00 0.00 57
20260509221232 22 271 19.3 24.1 0.00 0.00 0.00 58
20260509221030 23 278 16.1 24.1 0.00 0.00 0.00 57
20260509220829 23 243 16.1 24.1 0.00 0.00 0.00 58
20260509220627 23 268 11.3 20.9 0.00 0.00 0.00 59
20260509220425 23 258 19.3 20.9 0.00 0.00 0.00 57
20260509220223 23 270 16.1 22.5 0.00 0.00 0.00 57
20260509215819 23 289 14.5 20.9 0.00 0.00 0.00 58
20260509215415 23 271 6.4 20.9 0.00 0.00 0.00 56
20260509215212 23 243 14.5 25.7 0.00 0.00 0.00 57
20260509215009 23 261 12.9 25.7 0.00 0.00 0.00 59
20260509214807 22 274 20.9 20.9 0.00 0.00 0.00 58
20260509214608 22 262 9.7 20.9 0.00 0.00 0.00 58
20260509214405 23 258 19.3 20.9 0.00 0.00 0.00 58
20260509213801 23 286 12.9 25.7 0.00 0.00 0.00 58
20260509213556 23 257 17.7 25.7 0.00 0.00 0.00 57
20260509212749 22 264 19.3 22.5 0.00 0.00 0.00 57
20260509211538 23 281 14.5 19.3 0.00 0.00 0.00 57
20260509211336 23 246 11.3 19.3 0.00 0.00 0.00 56
20260509211133 23 281 12.9 24.1 0.00 0.00 0.00 58
20260509210930 23 264 3.2 24.1 0.00 0.00 0.00 58
20260509210528 23 234 12.9 27.4 0.00 0.00 0.00 59
20260509210326 22 262 16.1 27.4 0.00 0.00 0.00 59
20260509205922 23 267 9.7 20.9 0.00 0.00 0.00 58
20260509205720 23 278 9.7 24.1 0.00 0.00 0.00 59
20260509205517 23 258 12.9 24.1 0.00 0.00 0.00 59
20260509205316 23 257 12.9 24.1 0.00 0.00 0.00 59
20260509205114 23 270 8.0 24.1 0.00 0.00 0.00 57
20260509204912 23 275 6.4 24.1 0.00 0.00 0.00 58
20260509204710 23 255 16.1 20.9 0.00 0.00 0.00 59
20260509204509 23 298 8.0 20.9 0.00 0.00 0.00 59
20260509204103 23 260 16.1 22.5 0.00 0.00 0.00 58
20260509203903 23 258 14.5 22.5 0.00 0.00 0.00 59
20260509203459 23 274 8.0 22.5 0.00 0.00 0.00 59
20260509203257 23 262 17.7 22.5 0.00 0.00 0.00 59
20260509203055 23 264 16.1 22.5 0.00 0.00 0.00 59
20260509202853 23 248 16.1 22.5 0.00 0.00 0.00 59
20260509202651 23 278 3.2 22.5 0.00 0.00 0.00 60
20260509202247 23 262 19.3 24.1 0.00 0.00 0.00 58
20260509202045 23 251 12.9 24.1 0.00 0.00 0.00 59
20260509201843 22 282 8.0 24.1 0.00 0.00 0.00 60
20260509201641 22 312 12.9 24.1 0.00 0.00 0.00 60
20260509201439 22 281 22.5 24.1 0.00 0.00 0.00 60
20260509201237 22 233 9.7 20.9 0.00 0.00 0.00 61
20260509201035 22 255 14.5 20.9 0.00 0.00 0.00 59
20260509200833 22 271 17.7 20.9 0.00 0.00 0.00 61
20260509200631 22 277 16.1 19.3 0.00 0.00 0.00 58
20260509200227 22 261 16.1 20.9 0.00 0.00 0.00 60
20260509195822 22 265 14.5 20.9 0.00 0.00 0.00 59
20260509195419 22 243 9.7 20.9 0.00 0.00 0.00 59
20260509195218 22 260 11.3 17.7 0.00 0.00 0.00 58
20260509195016 22 275 12.9 17.7 0.00 0.00 0.00 59
20260509194815 22 247 1.6 17.7 0.00 0.00 0.00 58
20260509194612 22 261 12.9 17.7 0.00 0.00 0.00 59
20260509194410 22 73 0.0 17.7 0.00 0.00 0.00 58
20260509194004 22 272 4.8 19.3 0.00 0.00 0.00 61
20260509193804 21 277 11.3 16.1 0.00 0.00 0.00 61
20260509193602 22 274 11.3 16.1 0.00 0.00 0.00 60
20260509193400 22 270 6.4 16.1 0.00 0.00 0.00 59
20260509193158 22 261 16.1 20.9 0.00 0.00 0.00 59
20260509192956 22 272 11.3 20.9 0.00 0.00 0.00 60
20260509192754 22 268 12.9 17.7 0.00 0.00 0.00 61
20260509192550 22 281 16.1 17.7 0.00 0.00 0.00 58
20260509192348 22 254 3.2 17.7 0.00 0.00 0.00 63
20260509192148 21 257 0.0 16.1 0.00 0.00 0.00 64
20260509191946 21 277 1.6 16.1 0.00 0.00 0.00 62
20260509191742 21 285 6.4 17.7 0.00 0.00 0.00 64
20260509191542 21 262 11.3 17.7 0.00 0.00 0.00 62
20260509191340 21 289 4.8 17.7 0.00 0.00 0.00 63
20260509190935 21 277 14.5 17.7 0.00 0.00 0.00 63
20260509190331 21 277 12.9 17.7 0.00 0.00 0.00 66
20260509190129 20 262 9.7 17.7 0.00 0.00 0.00 67
20260509185925 20 264 14.5 17.7 0.00 0.00 0.00 67
20260509185724 20 261 9.7 19.3 0.00 0.00 0.00 67
20260509185523 20 270 14.5 19.3 0.00 0.00 0.00 68
20260509185321 20 237 4.8 19.3 0.00 0.00 0.00 68
20260509185117 20 260 12.9 17.7 0.00 0.00 0.00 68
20260509184917 20 262 14.5 17.7 0.00 0.00 0.00 70
20260509184715 20 281 12.9 17.7 0.00 0.00 0.00 70
20260509184511 20 289 11.3 17.7 0.00 0.00 0.00 70
20260509184311 19 317 6.4 17.7 0.00 0.00 0.00 72
20260509184108 20 260 11.3 17.7 0.00 0.00 0.00 72
20260509183907 19 278 11.3 17.7 0.00 0.00 0.00 72
20260509183504 19 262 11.3 16.1 0.00 0.00 0.00 73
20260509183302 18 323 4.8 17.7 0.00 0.00 0.00 73
20260509183100 19 295 8.0 17.7 0.00 0.00 0.00 75
20260509182858 18 282 6.4 17.7 0.00 0.00 0.00 74
20260509182656 18 277 11.3 17.7 0.00 0.00 0.00 75
20260509182452 19 284 16.1 17.7 0.00 0.00 0.00 75
20260509182252 18 277 11.3 19.3 0.00 0.00 0.00 75
20260509182050 18 274 9.7 19.3 0.00 0.00 0.00 76
20260509181847 18 262 14.5 19.3 0.00 0.00 0.00 76
20260509181647 18 274 14.5 17.7 0.00 0.00 0.00 77
20260509181243 18 275 11.3 20.9 0.00 0.00 0.00 77
20260509181041 18 254 14.5 20.9 0.00 0.00 0.00 78
20260509180838 18 261 14.5 20.9 0.00 0.00 0.00 78
20260509180637 18 260 14.5 20.9 0.00 0.00 0.00 79
20260509180233 18 260 20.9 17.7 0.00 0.00 0.00 78
20260509180032 18 282 19.3 17.7 0.00 0.00 0.00 78
20260509175629 18 272 9.7 17.7 0.00 0.00 0.00 79
20260509175426 18 275 12.9 17.7 0.00 0.00 0.00 79
20260509175224 18 267 4.8 16.1 0.00 0.00 0.00 79
20260509175024 18 275 12.9 16.1 0.00 0.00 0.00 78
20260509174818 18 278 6.4 16.1 0.00 0.00 0.00 79
20260509174616 18 264 9.7 16.1 0.00 0.00 0.00 79
20260509174416 18 288 4.8 16.1 0.00 0.00 0.00 79
20260509174214 17 262 8.0 17.7 0.00 0.00 0.00 80
20260509174012 17 277 12.9 17.7 0.00 0.00 0.00 78
20260509173810 17 319 6.4 16.1 0.00 0.00 0.00 78
20260509173608 17 274 4.8 16.1 0.00 0.00 0.00 80
20260509173407 17 286 12.9 16.1 0.00 0.00 0.00 80
20260509173204 17 285 11.3 17.7 0.00 0.00 0.00 80
20260509173002 17 274 6.4 17.7 0.00 0.00 0.00 81
20260509172557 17 264 12.9 17.7 0.00 0.00 0.00 81
20260509172357 17 282 9.7 17.7 0.00 0.00 0.00 81
20260509172155 17 258 9.7 16.1 0.00 0.00 0.00 80
20260509171953 17 279 11.3 16.1 0.00 0.00 0.00 81
20260509171752 17 279 8.0 14.5 0.00 0.00 0.00 82
20260509171550 17 264 8.0 14.5 0.00 0.00 0.00 83
20260509171347 16 299 11.3 14.5 0.00 0.00 0.00 83
20260509171144 17 275 11.3 14.5 0.00 0.00 0.00 85
20260509170742 16 268 9.7 16.1 0.00 0.00 0.00 86
20260509170540 16 275 12.9 16.1 0.00 0.00 0.00 87
20260509170338 16 275 6.4 16.1 0.00 0.00 0.00 87
20260509170136 16 268 4.8 14.5 0.00 0.00 0.00 88
20260509165733 16 275 8.0 14.5 0.00 0.00 0.00 89
20260509165530 16 322 4.8 14.5 0.00 0.00 0.00 88
20260509165126 15 282 3.2 12.9 0.00 0.00 0.00 91
20260509164925 15 302 1.6 12.9 0.00 0.00 0.00 94
20260509164723 15 275 8.0 12.9 0.00 0.00 0.00 95
20260509164318 15 313 4.8 11.3 0.00 0.00 0.00 95
20260509163915 15 289 3.2 11.3 0.00 0.00 0.00 96
20260509163713 15 275 8.0 11.3 0.00 0.00 0.00 96
20260509163512 15 274 6.4 11.3 0.00 0.00 0.00 97
20260509163310 14 286 4.8 6.4 0.00 0.00 0.00 97
20260509163108 14 279 1.6 6.4 0.00 0.00 0.00 97
20260509162906 14 194 0.0 6.4 0.00 0.00 0.00 97
20260509162704 14 271 1.6 11.3 0.00 0.00 0.00 97
20260509162502 14 286 4.8 11.3 0.00 0.00 0.00 97
20260509162058 13 277 6.4 8.0 0.00 0.00 0.00 97
20260509161855 13 298 1.6 8.0 0.00 0.00 0.00 97
20260509161654 13 313 0.0 9.7 0.00 0.00 0.00 97
20260509161452 13 316 4.8 9.7 0.00 0.00 0.00 97
20260509161250 13 248 3.2 3.2 0.00 0.00 0.00 97
20260509161049 13 285 4.8 3.2 0.00 0.00 0.00 97
20260509160847 13 240 0.0 3.2 0.00 0.00 0.00 97
20260509160643 13 240 0.0 6.4 0.00 0.00 0.00 97
20260509160241 13 292 4.8 4.8 0.00 0.00 0.00 97
20260509160039 13 298 3.2 4.8 0.00 0.00 0.00 97
20260509155837 13 272 3.2 4.8 0.00 0.00 0.00 97
20260509155232 13 261 0.0 0.0 0.00 0.00 0.00 97
20260509155030 13 261 0.0 0.0 0.00 0.00 0.00 97
20260509154828 13 261 0.0 0.0 0.00 0.00 0.00 97
20260509154626 13 261 0.0 0.0 0.00 0.00 0.00 97
20260509154424 13 261 0.0 0.0 0.00 0.00 0.00 97
20260509154222 13 261 0.0 0.0 0.00 0.00 0.00 97
20260509154021 13 261 0.0 0.0 0.00 0.00 0.00 97
20260509153817 13 261 0.0 0.0 0.00 0.00 0.00 97
20260509153617 13 261 0.0 0.0 0.00 0.00 0.00 97
20260509152605 13 286 0.0 0.0 0.00 0.00 0.00 97
20260509152203 13 286 0.0 0.0 0.00 0.00 0.00 97
20260509152001 13 286 0.0 0.0 0.00 0.00 0.00 97
20260509151759 13 286 0.0 0.0 0.00 0.00 0.00 97
20260509151557 13 286 0.0 0.0 0.00 0.00 0.00 97
20260509151355 13 286 0.0 0.0 0.00 0.00 0.00 97
20260509151153 13 286 0.0 0.0 0.00 0.00 0.00 97
20260509150951 13 286 0.0 0.0 0.00 0.00 0.00 97
20260509150750 12 286 0.0 0.0 0.00 0.00 0.00 97
20260509150548 12 286 0.0 0.0 0.00 0.00 0.00 97
20260509150346 12 286 0.0 0.0 0.00 0.00 0.00 97
20260509150144 12 286 0.0 0.0 0.00 0.00 0.00 97
20260509145942 12 286 0.0 0.0 0.00 0.00 0.00 97
20260509145537 12 286 0.0 0.0 0.00 0.00 0.00 97
20260509145336 12 286 0.0 0.0 0.00 0.00 0.00 97
20260509145135 12 286 0.0 0.0 0.00 0.00 0.00 97
20260509144933 12 286 0.0 0.0 0.00 0.00 0.00 97
20260509144529 12 286 0.0 0.0 0.00 0.00 0.00 97
20260509144327 12 286 0.0 0.0 0.00 0.00 0.00 97
20260509144125 12 286 0.0 0.0 0.00 0.00 0.00 97
20260509143923 12 286 0.0 0.0 0.00 0.00 0.00 97
20260509143721 12 286 0.0 0.0 0.00 0.00 0.00 97
20260509143115 12 286 0.0 0.0 0.00 0.00 0.00 97
20260509142510 12 286 0.0 0.0 0.00 0.00 0.00 97
20260509142308 12 286 0.0 0.0 0.00 0.00 0.00 97
20260509142106 12 286 0.0 0.0 0.00 0.00 0.00 97
20260509141902 12 286 0.0 0.0 0.00 0.00 0.00 97
20260509141702 11 286 0.0 0.0 0.00 0.00 0.00 97
20260509141500 11 286 0.0 0.0 0.00 0.00 0.00 97
20260509141258 11 286 0.0 0.0 0.00 0.00 0.00 97
20260509141056 11 286 0.0 0.0 0.00 0.00 0.00 97
20260509140854 11 286 0.0 0.0 0.00 0.00 0.00 97
20260509140653 11 286 0.0 0.0 0.00 0.00 0.00 97
20260509140451 11 286 0.0 0.0 0.00 0.00 0.00 97
20260509140249 11 286 0.0 0.0 0.00 0.00 0.00 97
20260509140047 11 286 0.0 0.0 0.00 0.00 0.00 97
20260509135643 11 286 0.0 0.0 0.00 0.00 0.00 97
20260509135441 11 286 0.0 0.0 0.00 0.00 0.00 97
20260509135238 11 286 0.0 0.0 0.00 0.00 0.00 97
20260509134835 11 286 0.0 0.0 0.00 0.00 0.00 97
20260509134634 11 286 0.0 0.0 0.00 0.00 0.00 97
20260509134432 11 286 0.0 0.0 0.00 0.00 0.00 97
20260509134230 11 286 0.0 0.0 0.00 0.00 0.00 97
20260509134026 11 286 0.0 0.0 0.00 0.00 0.00 97
20260509133624 11 286 0.0 0.0 0.00 0.00 0.00 97
20260509133426 10 286 0.0 0.0 0.00 0.00 0.00 97
20260509133221 10 286 0.0 0.0 0.00 0.00 0.00 97
20260509133018 11 286 0.0 0.0 0.00 0.00 0.00 97
20260509132614 10 286 0.0 0.0 0.00 0.00 0.00 97
20260509132413 10 286 0.0 0.0 0.00 0.00 0.00 97
20260509132211 11 286 0.0 0.0 0.00 0.00 0.00 97
20260509132009 10 286 0.0 0.0 0.00 0.00 0.00 97
20260509131807 10 286 0.0 0.0 0.00 0.00 0.00 97
20260509131605 10 286 0.0 0.0 0.00 0.00 0.00 97
20260509131403 10 286 0.0 0.0 0.00 0.00 0.00 97
20260509131201 10 286 0.0 0.0 0.00 0.00 0.00 97
20260509130959 11 286 0.0 0.0 0.00 0.00 0.00 97
20260509130757 10 286 0.0 0.0 0.00 0.00 0.00 97
20260509130555 10 286 0.0 0.0 0.00 0.00 0.00 97
20260509125748 10 286 0.0 0.0 0.00 0.00 0.00 97
20260509124940 11 286 0.0 0.0 0.00 0.00 0.00 97
20260509124739 11 286 0.0 0.0 0.00 0.00 0.00 97
20260509124335 11 286 0.0 0.0 0.00 0.00 0.00 97
20260509124133 11 286 0.0 0.0 0.00 0.00 0.00 97
20260509123931 11 286 0.0 0.0 0.00 0.00 0.00 97
20260509123729 11 286 0.0 0.0 0.00 0.00 0.00 97
20260509123325 11 286 0.0 0.0 0.00 0.00 0.00 96
20260509123123 11 286 0.0 0.0 0.00 0.00 0.00 96
20260509122921 11 286 0.0 0.0 0.00 0.00 0.00 96
20260509122719 11 286 0.0 0.0 0.00 0.00 0.00 96
20260509122516 11 286 0.0 0.0 0.00 0.00 0.00 97
20260509122316 11 286 0.0 0.0 0.00 0.00 0.00 97
20260509122114 11 286 0.0 0.0 0.00 0.00 0.00 97
20260509121911 11 286 0.0 0.0 0.00 0.00 0.00 96
20260509121506 11 286 0.0 0.0 0.00 0.00 0.00 96
20260509121306 11 286 0.0 0.0 0.00 0.00 0.00 96
20260509120700 11 286 0.0 0.0 0.00 0.00 0.00 96
20260509120458 11 286 0.0 0.0 0.00 0.00 0.00 96
20260509120256 11 286 0.0 0.0 0.00 0.00 0.00 96
20260509120055 11 286 0.0 0.0 0.00 0.00 0.00 96
20260509115852 11 286 0.0 0.0 0.00 0.00 0.00 96
20260509115650 11 286 0.0 0.0 0.00 0.00 0.00 96
20260509115449 11 286 0.0 0.0 0.00 0.00 0.00 96
20260509115247 11 286 0.0 0.0 0.00 0.00 0.00 96
20260509115045 11 286 0.0 0.0 0.00 0.00 0.00 96
20260509114843 11 286 0.0 0.0 0.00 0.00 0.00 96
20260509114640 11 286 0.0 0.0 0.00 0.00 0.00 96
20260509114438 11 286 0.0 0.0 0.00 0.00 0.00 96
20260509114237 11 286 0.0 0.0 0.00 0.00 0.00 96
20260509114035 11 286 0.0 0.0 0.00 0.00 0.00 96
20260509113834 11 286 0.0 0.0 0.00 0.00 0.00 96
20260509113430 11 286 0.0 0.0 0.00 0.00 0.00 96
20260509113026 11 286 0.0 0.0 0.00 0.00 0.00 96
20260509112824 11 286 0.0 0.0 0.00 0.00 0.00 96
20260509112622 11 286 0.0 0.0 0.00 0.00 0.00 96
20260509112218 11 286 0.0 0.0 0.00 0.00 0.00 96
20260509112016 11 286 0.0 0.0 0.00 0.00 0.00 96
20260509111613 11 286 0.0 0.0 0.00 0.00 0.00 96
20260509111411 11 286 0.0 0.0 0.00 0.00 0.00 96
20260509111209 11 286 0.0 0.0 0.00 0.00 0.00 96
20260509111006 10 286 0.0 0.0 0.00 0.00 0.00 96
20260509110805 11 286 0.0 0.0 0.00 0.00 0.00 95
20260509110603 11 286 0.0 0.0 0.00 0.00 0.00 95
20260509110359 11 286 0.0 0.0 0.00 0.00 0.00 95
20260509110159 11 286 0.0 0.0 0.00 0.00 0.00 95
20260509105957 11 286 0.0 0.0 0.00 0.00 0.00 95
20260509105755 11 286 0.0 0.0 0.00 0.00 0.00 95
20260509105554 11 286 0.0 0.0 0.00 0.00 0.00 95
20260509105351 11 286 0.0 0.0 0.00 0.00 0.00 95
20260509105149 11 286 0.0 0.0 0.00 0.00 0.00 95
20260509104946 11 286 0.0 0.0 0.00 0.00 0.00 95
20260509104746 11 286 0.0 0.0 0.00 0.00 0.00 95
20260509104542 11 286 0.0 0.0 0.00 0.00 0.00 95
20260509104342 11 286 0.0 0.0 0.00 0.00 0.00 95
20260509104140 11 286 0.0 0.0 0.00 0.00 0.00 95
20260509103938 11 286 0.0 0.0 0.00 0.00 0.00 95
20260509103736 11 286 0.0 0.0 0.00 0.00 0.00 95
20260509103533 11 286 0.0 0.0 0.00 0.00 0.00 95
20260509102727 11 286 0.0 0.0 0.00 0.00 0.00 95
20260509102121 11 286 0.0 0.0 0.00 0.00 0.00 95
20260509101717 11 286 0.0 0.0 0.00 0.00 0.00 95
20260509101515 11 286 0.0 0.0 0.00 0.00 0.00 95
20260509101313 11 260 0.0 0.0 0.00 0.00 0.00 94
20260509101111 11 260 0.0 0.0 0.00 0.00 0.00 95
20260509100910 11 260 0.0 0.0 0.00 0.00 0.00 95
20260509100708 12 260 0.0 0.0 0.00 0.00 0.00 95
20260509095900 12 260 0.0 0.0 0.00 0.00 0.00 95
20260509095456 12 260 0.0 0.0 0.00 0.00 0.00 94
20260509095254 12 260 0.0 0.0 0.00 0.00 0.00 94
20260509094849 12 260 0.0 0.0 0.00 0.00 0.00 94
20260509094647 12 260 0.0 0.0 0.00 0.00 0.00 94
20260509094447 12 260 0.0 0.0 0.00 0.00 0.00 94
20260509094245 12 260 0.0 0.0 0.00 0.00 0.00 95
20260509094043 12 260 0.0 0.0 0.00 0.00 0.00 94
20260509093841 12 260 0.0 0.0 0.00 0.00 0.00 94
20260509093639 12 260 0.0 0.0 0.00 0.00 0.00 94
20260509093235 12 260 0.0 0.0 0.00 0.00 0.00 94
20260509093033 12 260 0.0 0.0 0.00 0.00 0.00 94
20260509092831 12 260 0.0 0.0 0.00 0.00 0.00 94
20260509092427 12 260 0.0 0.0 0.00 0.00 0.00 94
20260509092226 12 260 0.0 0.0 0.00 0.00 0.00 94
20260509092023 12 260 0.0 0.0 0.00 0.00 0.00 94
20260509091620 12 260 0.0 0.0 0.00 0.00 0.00 94
20260509091417 12 260 0.0 0.0 0.00 0.00 0.00 94
20260509091014 12 260 0.0 0.0 0.00 0.00 0.00 94
20260509090812 12 260 0.0 0.0 0.00 0.00 0.00 94
20260509090611 12 260 0.0 0.0 0.00 0.00 0.00 94
20260509090409 12 260 0.0 0.0 0.00 0.00 0.00 94
20260509090207 12 260 0.0 0.0 0.00 0.00 0.00 94
20260509085803 12 260 0.0 0.0 0.00 0.00 0.00 94
20260509085601 12 260 0.0 0.0 0.00 0.00 0.00 94
20260509085359 12 260 0.0 0.0 0.00 0.00 0.00 94
20260509085157 12 260 0.0 0.0 0.00 0.00 0.00 93
20260509084955 12 260 0.0 0.0 0.00 0.00 0.00 93
20260509084753 12 260 0.0 0.0 0.00 0.00 0.00 93
20260509084551 12 260 0.0 0.0 0.00 0.00 0.00 93
20260509084148 12 260 0.0 0.0 0.00 0.00 0.00 93
20260509083946 12 260 0.0 0.0 0.00 0.00 0.00 92
20260509083542 12 260 0.0 0.0 0.00 0.00 0.00 93
20260509083340 12 260 0.0 0.0 0.00 0.00 0.00 93
20260509082935 12 260 0.0 0.0 0.00 0.00 0.00 92
20260509082734 12 260 0.0 0.0 0.00 0.00 0.00 93
20260509082532 12 260 0.0 0.0 0.00 0.00 0.00 93
20260509082331 12 260 0.0 0.0 0.00 0.00 0.00 93
20260509082129 12 260 0.0 0.0 0.00 0.00 0.00 93
20260509081926 12 260 0.0 0.0 0.00 0.00 0.00 93
20260509081523 12 260 0.0 0.0 0.00 0.00 0.00 92
20260509081321 12 260 0.0 0.0 0.00 0.00 0.00 92
20260509080915 12 260 0.0 0.0 0.00 0.00 0.00 92
20260509080715 12 260 0.0 0.0 0.00 0.00 0.00 92
20260509080513 12 260 0.0 0.0 0.00 0.00 0.00 92
20260509080311 12 260 0.0 0.0 0.00 0.00 0.00 92
20260509075908 12 260 0.0 0.0 0.00 0.00 0.00 92
20260509075706 13 260 0.0 0.0 0.00 0.00 0.00 92
20260509075504 13 260 0.0 0.0 0.00 0.00 0.00 92
20260509075305 13 260 0.0 0.0 0.00 0.00 0.00 92
20260509075101 13 260 0.0 0.0 0.00 0.00 0.00 92
20260509074656 13 260 0.0 0.0 0.00 0.00 0.00 91
20260509074454 13 260 0.0 0.0 0.00 0.00 0.00 91
20260509074252 13 260 0.0 0.0 0.00 0.00 0.00 91
20260509074051 13 260 0.0 0.0 0.00 0.00 0.00 91
20260509073849 13 260 0.0 0.0 0.00 0.00 0.00 91
20260509073241 13 260 0.0 0.0 0.00 0.00 0.00 91
20260509073041 13 260 0.0 0.0 0.00 0.00 0.00 91
20260509072839 13 260 0.0 0.0 0.00 0.00 0.00 91
20260509072637 13 260 0.0 0.0 0.00 0.00 0.00 91
20260509072435 13 260 0.0 0.0 0.00 0.00 0.00 91
20260509071830 13 260 0.0 0.0 0.00 0.00 0.00 90
20260509071628 13 260 0.0 0.0 0.00 0.00 0.00 90
20260509071426 13 260 0.0 0.0 0.00 0.00 0.00 90
20260509071223 13 260 0.0 0.0 0.00 0.00 0.00 90
20260509071022 13 260 0.0 0.0 0.00 0.00 0.00 90
20260509070820 13 260 0.0 0.0 0.00 0.00 0.00 90
20260509070416 13 260 0.0 0.0 0.00 0.00 0.00 90
20260509070012 13 260 0.0 0.0 0.00 0.00 0.00 90
20260509065405 13 260 0.0 0.0 0.00 0.00 0.00 90
20260509065205 13 260 0.0 0.0 0.00 0.00 0.00 90
20260509065003 13 260 0.0 0.0 0.00 0.00 0.00 90
20260509064800 13 260 0.0 0.0 0.00 0.00 0.00 90
20260509064357 13 260 0.0 0.0 0.00 0.00 0.00 90
20260509064155 13 260 0.0 0.0 0.00 0.00 0.00 90
20260509063953 13 260 0.0 0.0 0.00 0.00 0.00 89
20260509063751 13 260 0.0 0.0 0.00 0.00 0.00 89
20260509063549 13 260 0.0 0.0 0.00 0.00 0.00 89
20260509063348 13 260 0.0 0.0 0.00 0.00 0.00 89
20260509063144 13 260 0.0 0.0 0.00 0.00 0.00 89
20260509062944 14 260 0.0 0.0 0.00 0.00 0.00 89
20260509062740 14 260 0.0 0.0 0.00 0.00 0.00 89
20260509062540 14 260 0.0 0.0 0.00 0.00 0.00 89
20260509062338 14 260 0.0 0.0 0.00 0.00 0.00 89
20260509062136 14 260 0.0 4.8 0.00 0.00 0.00 89
20260509061732 14 295 1.6 4.8 0.00 0.00 0.00 89
20260509061531 14 298 1.6 4.8 0.00 0.00 0.00 89
20260509061127 14 296 3.2 4.8 0.00 0.00 0.00 89
20260509060723 14 300 1.6 4.8 0.00 0.00 0.00 89
20260509060519 14 305 4.8 4.8 0.00 0.00 0.00 89
20260509060319 14 306 3.2 0.0 0.00 0.00 0.00 89
20260509060117 14 298 3.2 0.0 0.00 0.00 0.00 88
20260509055713 14 268 0.0 0.0 0.00 0.00 0.00 89
20260509055309 14 268 0.0 0.0 0.00 0.00 0.00 88
20260509055108 14 268 0.0 0.0 0.00 0.00 0.00 88
20260509054502 14 268 0.0 0.0 0.00 0.00 0.00 88
20260509054300 14 268 0.0 0.0 0.00 0.00 0.00 88
20260509054058 14 268 0.0 0.0 0.00 0.00 0.00 88